STARLINK-34669

Last updated on Sat Aug 16 2025 00:02:05 GMT+0000 (Coordinated Universal Time)

1 64811U 25150X 25227.58336806 -.00779170 00000+0 -19048-1 0 9995 2 64811 69.9996 315.3128 0003852 268.4539 141.1345 15.43190501 6080

Satellite not in orbit